Weather History for Big Piney, WY

Change the Weather History Date:

Tuesday, January 29, 2013

  Actual Average Record
Temperature  
Mean Temperature 3 °F 11 °F  
Max Temperature 21 °F 26 °F 38 °F (1988)
Min Temperature -15 °F -2 °F -30 °F (1979)
Degree Days  
Heating Degree Days 62 54  
Month to date heating degree days 1663 1566  
Since 1 July heating degree days 5385 6005  
Cooling Degree Days 0 0  
Month to date cooling degree days 0 0  
Year to date cooling degree days 0 0  
Moisture  
Dew Point -4 °F    
Average Humidity 72    
Maximum Humidity 92    
Minimum Humidity 51    
Precipitation  
Precipitation T in 0.01 in 0.01 in (2004)
Month to date precipitation 0.07 0.29  
Year to date precipitation 0.07 0.29  
Sea Level Pressure  
Sea Level Pressure 30.04 in    
Wind  
Wind Speed 5 mph (North)    
Max Wind Speed 21 mph    
Max Gust Speed 24 mph    
Visibility 10 miles    
Events      
T = Trace of Precipitation, MM = Missing Value Source: NWS Daily Summary

Daily Weather History Graph

Daily Weather History Graph

Search for Another Location

Airport:

Trip Planner

Search our weather history database for the weather conditions in past years. The results will help you decide how hot, cold, wet, or windy it might be!

Date:

Astronomy

Jan. 29, 2013 Rise Set
Actual Time 7:37 AM MST 5:30 PM MST
Civil Twilight 7:07 AM MST 6:00 PM MST
Nautical Twilight 6:33 AM MST 6:34 PM MST
Astronomical Twilight 6:00 AM MST 7:07 PM MST
Moon 8:35 PM MST (1/29) 8:31 AM MST (1/29)
Length of Visible Light 10h 53m
Length of Day
9h 53m
Waning Gibbous, 93% of the Moon is Illuminated
Jan 29
Waning Gibbous
Feb 3
Last Quarter
Feb 10
New
Feb 17
First Quarter
Feb 25
Full

Hourly Weather History & Observations

Time (MST) Temp. Windchill Dew Point Humidity Pressure Visibility Wind Dir Wind Speed Gust Speed Precip Events Conditions
12:53 AM -9.9 °F - -14.1 °F 82% 29.99 in 10.0 mi Calm Calm - N/A   Partly Cloudy
1:53 AM -11.0 °F -22.8 °F -15.0 °F 83% 29.97 in 10.0 mi ENE 4.6 mph - N/A   Clear
2:53 AM -14.1 °F - -18.0 °F 82% 29.97 in 10.0 mi Calm Calm - N/A   Mostly Cloudy
3:53 AM -9.9 °F - -15.0 °F 78% 29.95 in 10.0 mi Calm Calm - N/A   Mostly Cloudy
4:53 AM -13.0 °F -28.6 °F -17.0 °F 82% 29.97 in 10.0 mi ENE 6.9 mph - N/A   Scattered Clouds
5:53 AM -11.0 °F - -16.1 °F 78% 30.01 in 10.0 mi Calm Calm - N/A   Clear
6:53 AM -9.0 °F - -11.9 °F 87% 30.02 in 6.0 mi Calm Calm - 0.00 in   Overcast
7:11 AM -9.4 °F - -14.8 °F 77% 29.71 in 9.0 mi Calm Calm - N/A   Mostly Cloudy
7:23 AM -9.4 °F - -14.8 °F 77% 29.71 in 10.0 mi Calm Calm - N/A   Scattered Clouds
7:53 AM -8.0 °F - -11.9 °F 83% 30.06 in 10.0 mi Calm Calm - N/A   Clear
8:53 AM -5.1 °F - -9.0 °F 83% 30.06 in 10.0 mi Calm Calm - N/A   Partly Cloudy
9:53 AM 1.9 °F - -2.0 °F 83% 30.07 in 10.0 mi Calm Calm - N/A   Clear
10:53 AM 3.9 °F -5.3 °F -2.9 °F 73% 30.07 in 10.0 mi ESE 4.6 mph - N/A   Clear
11:53 AM 9.0 °F - 1.9 °F 73% 30.05 in 10.0 mi Calm Calm - N/A   Scattered Clouds
12:53 PM 16.0 °F - 6.1 °F 65% 30.03 in 10.0 mi Calm Calm - N/A   Scattered Clouds
1:53 PM 19.9 °F 5.2 °F 7.0 °F 57% 30.02 in 10.0 mi NNW 17.3 mph 21.9 mph N/A   Overcast
2:12 PM 19.4 °F 5.5 °F 6.8 °F 58% 29.78 in 10.0 mi NNW 15.0 mph - N/A   Overcast
2:40 PM 19.4 °F 7.2 °F 10.4 °F 68% 29.80 in 10.0 mi NNW 11.5 mph - 0.00 in   Mostly Cloudy
2:53 PM 19.9 °F 6.7 °F 10.0 °F 65% 30.06 in 10.0 mi NNW 13.8 mph - 0.00 in   Mostly Cloudy
3:53 PM 19.9 °F 7.3 °F 7.0 °F 57% 30.07 in 10.0 mi North 12.7 mph - N/A   Clear
4:53 PM 19.0 °F 5.0 °F 5.0 °F 54% 30.12 in 10.0 mi NNW 15.0 mph - N/A   Overcast
5:53 PM 10.0 °F -3.7 °F 1.0 °F 67% 30.22 in 10.0 mi North 10.4 mph - N/A   Partly Cloudy
6:53 PM 8.1 °F -5.3 °F 3.0 °F 80% 30.24 in 10.0 mi North 9.2 mph - N/A   Overcast
7:53 PM 5.0 °F -5.6 °F -2.0 °F 73% 30.27 in 10.0 mi NNW 5.8 mph - N/A   Overcast
8:53 PM 9.0 °F -2.2 °F 1.9 °F 73% 30.25 in 10.0 mi North 6.9 mph - N/A   Overcast
9:53 PM 3.9 °F -6.9 °F -2.0 °F 76% 30.24 in 10.0 mi SW 5.8 mph - N/A   Mostly Cloudy
10:53 PM 3.0 °F -9.3 °F -2.9 °F 76% 30.23 in 10.0 mi NNW 6.9 mph - N/A   Mostly Cloudy
11:53 PM -0.0 °F -11.6 °F -5.1 °F 79% 30.21 in 10.0 mi NW 5.8 mph - N/A   Overcast